Time,TemperatureF,DewpointF,PressureIn,WindDirection,WindDirectionDegrees,WindSpeedMPH,WindSpeedGustMPH,Humidity,HourlyPrecipIn,Conditions,Clouds,dailyrainin,SoftwareType,DateUTC
2013-11-11 00:13:00,48.0,28.0,30.03,NNW,332,6.0,16.0,45,0.00,,,0.00,,2013-11-11 05:13:00,
2013-11-11 00:23:00,48.0,28.0,30.03,WNW,300,4.0,14.0,46,0.00,,,0.00,,2013-11-11 05:23:00,
2013-11-11 00:43:00,48.0,28.0,30.04,North,349,6.0,12.0,46,0.00,,,0.00,,2013-11-11 05:43:00,
2013-11-11 00:54:00,47.0,28.0,30.04,NNW,332,6.0,16.0,47,0.00,,,0.00,,2013-11-11 05:54:00,
2013-11-11 01:13:00,47.0,28.0,30.05,WNW,299,8.0,16.0,47,0.00,,,0.00,,2013-11-11 06:13:00,
2013-11-11 01:22:00,47.0,28.0,30.05,West,274,6.0,16.0,47,0.00,,,0.00,,2013-11-11 06:22:00,
2013-11-11 01:42:00,47.0,28.0,30.06,NW,319,6.0,14.0,47,0.00,,,0.00,,2013-11-11 06:42:00,
2013-11-11 01:52:00,47.0,28.0,30.07,NW,323,4.0,12.0,48,0.00,,,0.00,,2013-11-11 06:52:00,
2013-11-11 02:12:00,46.0,26.0,30.08,WNW,283,8.0,18.0,46,0.00,,,0.00,,2013-11-11 07:12:00,
2013-11-11 02:22:00,46.0,27.0,30.08,NNW,327,6.0,12.0,47,0.00,,,0.00,,2013-11-11 07:22:00,
2013-11-11 02:43:00,46.0,26.0,30.08,West,277,4.0,9.0,46,0.00,,,0.00,,2013-11-11 07:43:00,
2013-11-11 02:52:00,46.0,27.0,30.09,NNW,339,5.0,15.0,47,0.00,,,0.00,,2013-11-11 07:52:00,
2013-11-11 03:12:00,46.0,27.0,30.09,NW,314,4.0,11.0,47,0.00,,,0.00,,2013-11-11 08:12:00,
2013-11-11 03:22:00,45.0,26.0,30.10,NW,321,4.0,17.0,47,0.00,,,0.00,,2013-11-11 08:22:00,
2013-11-11 03:42:00,45.0,26.0,30.11,WNW,302,2.0,11.0,47,0.00,,,0.00,,2013-11-11 08:42:00,
2013-11-11 03:52:00,45.0,26.0,30.11,NW,310,7.0,17.0,47,0.00,,,0.00,,2013-11-11 08:52:00,
2013-11-11 04:11:00,45.0,26.0,30.11,NNW,331,8.0,19.0,47,0.00,,,0.00,,2013-11-11 09:11:00,
2013-11-11 04:22:00,45.0,26.0,30.12,NW,326,7.0,15.0,47,0.00,,,0.00,,2013-11-11 09:22:00,
2013-11-11 04:43:00,44.0,26.0,30.13,NW,312,5.0,17.0,48,0.00,,,0.00,,2013-11-11 09:43:00,
2013-11-11 04:53:00,44.0,26.0,30.14,NNW,330,0.0,7.0,49,0.00,,,0.00,,2013-11-11 09:53:00,
2013-11-11 05:23:00,44.0,25.0,30.15,NNW,337,4.0,17.0,47,0.00,,,0.00,,2013-11-11 10:23:00,
2013-11-11 05:42:00,44.0,26.0,30.14,NNW,333,7.0,12.0,48,0.00,,,0.00,,2013-11-11 10:42:00,
2013-11-11 05:52:00,44.0,26.0,30.15,NNE,13,5.0,13.0,48,0.00,,,0.00,,2013-11-11 10:52:00,
2013-11-11 06:12:00,44.0,26.0,30.15,NNW,330,5.0,10.0,49,0.00,,,0.00,,2013-11-11 11:12:00,
2013-11-11 06:21:00,43.0,25.0,30.15,West,270,1.0,10.0,49,0.00,,,0.00,,2013-11-11 11:21:00,
2013-11-11 06:42:00,43.0,26.0,30.16,NW,319,1.0,7.0,50,0.00,,,0.00,,2013-11-11 11:42:00,
2013-11-11 06:52:00,43.0,26.0,30.16,West,269,3.0,11.0,51,0.00,,,0.00,,2013-11-11 11:52:00,
2013-11-11 07:12:00,43.0,27.0,30.17,NNW,336,1.0,6.0,52,0.00,,,0.00,,2013-11-11 12:12:00,
2013-11-11 07:22:00,43.0,26.0,30.18,WNW,300,3.0,9.0,51,0.00,,,0.00,,2013-11-11 12:22:00,
2013-11-11 07:42:00,43.0,26.0,30.18,NNW,327,3.0,13.0,51,0.00,,,0.00,,2013-11-11 12:42:00,
2013-11-11 07:52:00,43.0,26.0,30.19,North,359,3.0,13.0,51,0.00,,,0.00,,2013-11-11 12:52:00,
2013-11-11 08:11:00,43.0,26.0,30.18,NNW,347,2.0,6.0,51,0.00,,,0.00,,2013-11-11 13:11:00,
2013-11-11 08:22:00,43.0,26.0,30.19,WNW,303,3.0,7.0,51,0.00,,,0.00,,2013-11-11 13:22:00,
2013-11-11 08:42:00,44.0,27.0,30.19,NNW,328,3.0,8.0,51,0.00,,,0.00,,2013-11-11 13:42:00,
2013-11-11 08:52:00,44.0,27.0,30.19,NW,318,4.0,11.0,51,0.00,,,0.00,,2013-11-11 13:52:00,
2013-11-11 09:22:00,44.0,27.0,30.20,NW,316,3.0,11.0,51,0.00,,,0.00,,2013-11-11 14:22:00,
2013-11-11 09:42:00,44.0,27.0,30.19,NW,326,4.0,8.0,50,0.00,,,0.00,,2013-11-11 14:42:00,
2013-11-11 09:52:00,44.0,27.0,30.19,NW,323,3.0,9.0,51,0.00,,,0.00,,2013-11-11 14:52:00,
2013-11-11 10:11:00,44.0,27.0,30.19,NNW,328,5.0,11.0,50,0.00,,,0.00,,2013-11-11 15:11:00,
2013-11-11 10:22:00,44.0,26.0,30.18,NNW,328,5.0,12.0,49,0.00,,,0.00,,2013-11-11 15:22:00,
2013-11-11 10:43:00,45.0,27.0,30.18,NW,326,4.0,10.0,49,0.00,,,0.00,,2013-11-11 15:43:00,
2013-11-11 10:53:00,46.0,27.0,30.18,NW,323,2.0,12.0,48,0.00,,,0.00,,2013-11-11 15:53:00,
2013-11-11 11:13:00,46.0,27.0,30.17,WNW,296,9.0,17.0,47,0.00,,,0.00,,2013-11-11 16:13:00,
2013-11-11 11:23:00,46.0,27.0,30.16,WNW,298,2.0,10.0,47,0.00,,,0.00,,2013-11-11 16:23:00,
2013-11-11 11:42:00,46.0,26.0,30.16,North,352,6.0,14.0,46,0.00,,,0.00,,2013-11-11 16:42:00,
2013-11-11 11:53:00,47.0,27.0,30.14,NNW,336,5.0,11.0,46,0.00,,,0.00,,2013-11-11 16:53:00,
2013-11-11 12:12:00,48.0,27.0,30.14,North,9,5.0,9.0,44,0.00,,,0.00,,2013-11-11 17:12:00,
2013-11-11 12:22:00,51.0,29.0,30.14,North,8,1.0,6.0,42,0.00,,,0.00,,2013-11-11 17:22:00,
2013-11-11 12:42:00,50.0,28.0,30.13,NW,314,4.0,12.0,43,0.00,,,0.00,,2013-11-11 17:42:00,
2013-11-11 12:52:00,50.0,28.0,30.12,North,5,0.0,7.0,43,0.00,,,0.00,,2013-11-11 17:52:00,
2013-11-11 13:13:00,50.0,29.0,30.12,NW,321,1.0,4.0,44,0.00,,,0.00,,2013-11-11 18:13:00,
2013-11-11 13:23:00,49.0,29.0,30.11,SE,146,0.0,7.0,45,0.00,,,0.00,,2013-11-11 18:23:00,
2013-11-11 13:42:00,51.0,29.0,30.11,NNW,343,4.0,10.0,43,0.00,,,0.00,,2013-11-11 18:42:00,
2013-11-11 13:52:00,52.0,31.0,30.10,NW,304,0.0,7.0,44,0.00,,,0.00,,2013-11-11 18:52:00,
2013-11-11 14:12:00,52.0,30.0,30.09,WSW,243,1.0,8.0,42,0.00,,,0.00,,2013-11-11 19:12:00,
2013-11-11 14:22:00,52.0,30.0,30.08,SSW,211,0.0,6.0,43,0.00,,,0.00,,2013-11-11 19:22:00,
2013-11-11 14:42:00,52.0,30.0,30.08,SW,233,0.0,3.0,43,0.00,,,0.00,,2013-11-11 19:42:00,
2013-11-11 14:53:00,52.0,30.0,30.07,SW,228,1.0,7.0,42,0.00,,,0.00,,2013-11-11 19:53:00,
2013-11-11 15:11:00,52.0,30.0,30.06,NNW,348,3.0,10.0,42,0.00,,,0.00,,2013-11-11 20:11:00,
2013-11-11 15:22:00,52.0,30.0,30.07,NW,318,0.0,9.0,42,0.00,,,0.00,,2013-11-11 20:22:00,
2013-11-11 15:42:00,52.0,29.0,30.06,NE,41,0.0,6.0,41,0.00,,,0.00,,2013-11-11 20:42:00,
2013-11-11 15:52:00,52.0,29.0,30.05,ESE,113,0.0,3.0,41,0.00,,,0.00,,2013-11-11 20:52:00,
2013-11-11 16:12:00,52.0,29.0,30.05,WSW,256,1.0,5.0,41,0.00,,,0.00,,2013-11-11 21:12:00,
2013-11-11 16:22:00,52.0,30.0,30.05,ESE,112,0.0,5.0,42,0.00,,,0.00,,2013-11-11 21:22:00,
2013-11-11 16:43:00,52.0,31.0,30.04,SSW,207,0.0,4.0,44,0.00,,,0.00,,2013-11-11 21:43:00,
2013-11-11 16:55:00,52.0,30.0,30.03,SW,224,1.0,5.0,42,0.00,,,0.00,,2013-11-11 21:55:00,
2013-11-11 17:14:00,52.0,31.0,30.03,SE,143,0.0,7.0,44,0.00,,,0.00,,2013-11-11 22:14:00,
2013-11-11 17:24:00,52.0,31.0,30.02,SW,217,0.0,5.0,45,0.00,,,0.00,,2013-11-11 22:24:00,
2013-11-11 17:43:00,52.0,31.0,30.02,SSW,197,0.0,5.0,45,0.00,,,0.00,,2013-11-11 22:43:00,
2013-11-11 17:53:00,52.0,32.0,30.03,ESE,117,0.0,6.0,46,0.00,,,0.00,,2013-11-11 22:53:00,
2013-11-11 18:13:00,52.0,32.0,30.02,South,190,0.0,10.0,46,0.00,,,0.00,,2013-11-11 23:13:00,
2013-11-11 18:22:00,52.0,32.0,30.02,South,183,1.0,7.0,46,0.00,,,0.00,,2013-11-11 23:22:00,
2013-11-11 18:42:00,52.0,32.0,30.02,WSW,249,1.0,7.0,47,0.00,,,0.00,,2013-11-11 23:42:00,
2013-11-11 18:53:00,52.0,33.0,30.01,North,11,1.0,6.0,48,0.00,,,0.00,,2013-11-11 23:53:00,
2013-11-11 19:12:00,52.0,32.0,30.01,ESE,113,1.0,5.0,47,0.00,,,0.00,,2013-11-12 00:12:00,
2013-11-11 19:22:00,52.0,32.0,30.00,SW,219,2.0,5.0,47,0.00,,,0.00,,2013-11-12 00:22:00,
2013-11-11 19:42:00,51.0,31.0,30.00,North,11,1.0,7.0,47,0.00,,,0.00,,2013-11-12 00:42:00,
2013-11-11 19:52:00,51.0,31.0,30.00,WSW,243,1.0,6.0,46,0.00,,,0.00,,2013-11-12 00:52:00,
2013-11-11 20:11:00,51.0,30.0,29.99,WNW,291,2.0,7.0,45,0.00,,,0.00,,2013-11-12 01:11:00,
2013-11-11 20:22:00,51.0,31.0,29.98,West,269,0.0,5.0,46,0.00,,,0.00,,2013-11-12 01:22:00,
2013-11-11 20:42:00,51.0,31.0,29.98,North,359,1.0,5.0,47,0.00,,,0.00,,2013-11-12 01:42:00,
2013-11-11 20:52:00,51.0,31.0,29.99,SSE,156,1.0,6.0,47,0.00,,,0.00,,2013-11-12 01:52:00,
2013-11-11 21:12:00,51.0,31.0,29.99,SW,225,1.0,6.0,47,0.00,,,0.00,,2013-11-12 02:12:00,
2013-11-11 21:22:00,51.0,32.0,29.99,NW,321,1.0,3.0,48,0.00,,,0.00,,2013-11-12 02:22:00,
2013-11-11 21:42:00,51.0,32.0,29.99,WSW,255,1.0,5.0,48,0.00,,,0.00,,2013-11-12 02:42:00,
2013-11-11 21:52:00,51.0,32.0,29.98,ENE,59,0.0,7.0,48,0.00,,,0.00,,2013-11-12 02:52:00,
2013-11-11 22:11:00,51.0,33.0,29.98,SSW,211,1.0,4.0,49,0.00,,,0.00,,2013-11-12 03:11:00,
2013-11-11 22:22:00,51.0,33.0,29.97,SSW,208,0.0,3.0,49,0.00,,,0.00,,2013-11-12 03:22:00,
2013-11-11 22:45:00,51.0,33.0,29.97,NNW,341,1.0,6.0,49,0.00,,,0.00,,2013-11-12 03:45:00,
2013-11-11 22:54:00,51.0,33.0,29.96,WNW,291,0.0,6.0,49,0.00,,,0.00,,2013-11-12 03:54:00,
2013-11-11 23:14:00,51.0,33.0,29.96,SSW,198,1.0,6.0,49,0.00,,,0.00,,2013-11-12 04:14:00,
2013-11-11 23:24:00,51.0,33.0,29.96,North,352,2.0,8.0,49,0.00,,,0.00,,2013-11-12 04:24:00,
2013-11-11 23:43:00,51.0,33.0,29.96,NNE,19,1.0,5.0,49,0.00,,,0.00,,2013-11-12 04:43:00,
2013-11-11 23:53:00,51.0,33.0,29.96,NNW,332,0.0,6.0,50,0.00,,,0.00,,2013-11-12 04:53:00,